Flag for U.S.A. Weather past 2 weeks in Fort Worth, Texas, U.S.A.

Now
82 °F

Sunny.


Feels Like: 85 °F
Forecast: 73 / 93 °F
Wind: 10 mph from South

Location: Meacham International Airport

Current Time: Sep 2, 2015 at 10:21:36 AM

Latest Report: Sep 2, 2015 at 9:53 AM


Visibility: 10 mi

Pressure: 30.04 "Hg

Humidity: 63%

Dew point: 68 °F

Location of Fort WorthLocation

Historic Weather in Fort Worth — Graph

°F

Fort Worth temperature yesterday

Maximum temperature yesterday: 96 °F (at 3:53 PM)
Minimum temperature yesterday: 75 °F (at 6:53 AM)
Average temperature yesterday: 85 °F

Past Weeks' High & Low Weather Summary

 TemperatureHumidityPressure
High101 °F (Aug 23, 2:53 PM)90% (Aug 20, 2:03 AM)30.13 "Hg (Aug 20, 2:03 AM)
Low66 °F (Aug 20, 2:03 AM)26% (Aug 30, 4:53 PM)29.65 "Hg (Aug 18, 7:53 PM)
Average85 °F56%29.94 "Hg
* Reported Aug 18 8:53 AM — Sep 2 8:53 AM, Fort Worth, Weather by CustomWeather, © 2015

Note: Actual official high and low records may vary slightly from our data, if they occured in-between our weather recording intervals... More about our weather records

Advertising

Fort Worth weather history for previous 24 hours

 ConditionsComfort  
Time TempWeatherWind HumidityBarometerVisibility
8:53 AM
Wed, Sep 2
78 °FSunny.10 mph74%30.04 "Hg10 mi
7:53 AM74 °FClear.6 mph85%30.03 "Hg10 mi
6:53 AM73 °FClear.8 mph84%30.01 "Hg10 mi
5:53 AM75 °FClear.9 mph79%30.00 "Hg10 mi
4:53 AM74 °FClear.6 mph79%30.00 "Hg10 mi
3:53 AM76 °FClear.10 mph74%30.00 "Hg10 mi
2:53 AM78 °FClear.10 mph66%30.00 "Hg10 mi
1:53 AM79 °FClear.12 mph65%30.01 "Hg10 mi
12:53 AM81 °FClear.12 mph62%30.00 "Hg10 mi
11:53 PM
Tue, Sep 1
83 °FClear.14 mph59%30.00 "Hg10 mi
10:53 PM85 °FClear.13 mph53%29.98 "Hg10 mi
9:53 PM87 °FClear.14 mph51%29.97 "Hg10 mi
8:53 PM89 °FSunny.10 mph45%29.95 "Hg10 mi
7:53 PM90 °FSunny.12 mph41%29.93 "Hg10 mi
6:53 PM93 °FSunny.12 mph36%29.92 "Hg10 mi
5:53 PM94 °FSunny.10 mph33%29.91 "Hg10 mi
3:53 PM96 °FScattered clouds.14 mph31%29.93 "Hg10 mi
2:53 PM93 °FPassing clouds.14 mph33%29.96 "Hg10 mi
1:53 PM94 °FSunny.10 mph35%29.96 "Hg10 mi
12:53 PM91 °FSunny.6 mph42%29.98 "Hg10 mi
11:53 AM90 °FSunny.12 mph45%30.00 "Hg10 mi
10:53 AM86 °FSunny.6 mph57%30.02 "Hg10 mi
Weather by CustomWeather, © 2015

See weather overviewHow to use our weather pages